[[{"header":{"parameterUnit":"m.s-1","parameterCategory":1,"la1":30.2991,"la2":30.254,"lo1":-89.0895,"lo2":-89.0444,"dy":0.0017,"dx":0.0017,"nx":28,"ny":28,"refTime":"2024-08-03T09:00:00:Z","depth":0,"parameterNumber":2,"parameterNumberName":"U-component_of_WINDS"},"data":[0,0,0,0,0,0,0,0,0,0,0,0,0,0,0,0,0,0,0,0,0,0,0,0,0,0,0,0,0,0,0,0,0,0,0,0,0,0,0,0,0,0,0,0,0,0,0,0,0,0,0,0,0,0,0,0,0,0,-0.3259,-0.3259,0,-0.3307,-0.3308,-0.3308,-0.3368,-0.3369,-0.337,-0.3371,-0.3418,-0.3418,-0.3419,0,0,0,0,0,0,0,0,0,0,0,0,0,-0.3215,-0.3216,-0.3258,-0.3259,-0.326,-0.3307,-0.3308,-0.3308,-0.3368,-0.3369,-0.337,-0.3371,-0.3418,-0.3418,-0.3419,0,0,0,0,0,0,0,0,0,0,0,0,0,-0.3246,-0.3216,-0.3258,-0.3295,-0.3299,-0.3307,-0.3308,-0.3308,-0.3367,-0.3369,-0.337,-0.3372,-0.3418,-0.3418,-0.3419,-0.3394,0,0,-0.3421,-0.3421,0,0,0,0,0,0,0,0,-0.3244,-0.3247,-0.3289,-0.3293,-0.3297,-0.3333,-0.331,-0.3337,-0.3367,-0.3341,-0.3371,-0.3372,-0.3388,-0.3391,-0.3397,-0.3396,-0.3398,-0.3421,-0.3421,-0.3421,-0.3421,0,0,0,0,0,0,0,-0.3242,-0.3245,-0.3278,-0.329,-0.3294,-0.3308,-0.3314,-0.3315,-0.3356,-0.3344,-0.3348,-0.3353,-0.3391,-0.3397,-0.3399,-0.3399,-0.3421,-0.3421,-0.3421,-0.3422,-0.338,-0.3378,0,0,0,0,0,0,-0.3234,-0.3243,-0.3276,-0.3279,-0.3273,-0.3308,-0.3315,-0.332,-0.3356,-0.3363,-0.3352,-0.3356,-0.3395,-0.3398,-0.3401,-0.3374,-0.3421,-0.3422,-0.3422,-0.3381,-0.3379,-0.3378,0,0,0,0,0,0,-0.3233,-0.3237,-0.3274,-0.3262,-0.3268,-0.3307,-0.3313,-0.332,-0.3326,-0.3363,-0.337,-0.3351,-0.3396,-0.34,-0.3395,-0.3377,-0.3422,-0.3422,-0.3383,-0.3381,-0.3379,-0.3321,0,0,0,0,0,0,-0.3232,-0.3236,-0.3227,-0.3262,-0.3269,-0.3268,-0.3311,-0.332,-0.3327,-0.3333,-0.3363,-0.337,-0.3398,-0.3394,-0.3396,-0.3378,-0.3423,-0.3385,-0.3382,-0.3379,-0.3324,-0.3317,-0.331,0,0,0,0,0,-0.323,-0.3209,-0.3227,-0.323,-0.3259,-0.3267,-0.3271,-0.3304,-0.3325,-0.3317,-0.334,-0.3369,-0.3378,-0.3393,-0.3396,-0.3378,-0.3386,-0.3383,-0.3379,-0.3328,-0.3318,-0.331,0,0,0,0,0,0,-0.317,-0.3214,-0.3234,-0.3224,-0.3241,-0.3277,-0.3267,-0.3293,-0.3305,-0.3309,-0.3349,-0.3356,-0.3346,-0.3362,-0.3377,-0.3356,-0.3386,-0.3383,-0.3346,-0.3338,-0.3331,-0.3327,-0.3423,0,0,0,0,0,-0.3156,-0.3159,-0.3197,-0.3184,-0.3192,-0.3228,-0.3233,-0.3257,-0.3277,-0.3284,-0.3307,-0.3325,-0.3332,-0.3335,-0.3344,-0.3327,-0.3334,-0.3316,-0.3309,-0.3303,-0.33,-0.3292,-0.3284,-0.3367,-0.3367,-0.3367,0,0,-0.3126,-0.315,-0.315,-0.3173,-0.3189,-0.3192,-0.3234,-0.3235,-0.3237,-0.3284,-0.3282,-0.3299,-0.3321,-0.331,-0.3306,-0.3322,-0.3278,-0.3299,-0.3293,-0.3294,-0.3288,-0.328,-0.3273,-0.3365,-0.3365,-0.3366,0,0,-0.3073,-0.3091,-0.3083,-0.3099,-0.3124,-0.3148,-0.3146,-0.3178,-0.3192,-0.319,-0.3225,-0.3228,-0.3239,-0.3254,-0.3262,-0.3215,-0.3241,-0.3216,-0.3179,-0.3171,-0.3164,-0.3159,-0.3142,-0.3135,-0.3213,-0.3213,-0.3213,0,-0.3032,-0.3038,-0.3075,-0.3074,-0.3082,-0.3126,-0.3118,-0.3131,-0.3157,-0.3161,-0.318,-0.3195,-0.3213,-0.3206,-0.3194,-0.32,-0.3198,-0.3213,-0.3163,-0.3157,-0.3153,-0.3137,-0.313,-0.321,-0.321,-0.321,-0.3211,0,-0.2987,-0.2991,-0.2981,-0.3006,-0.3013,-0.3008,-0.3043,-0.3046,-0.307,-0.3092,-0.3089,-0.3112,-0.3126,-0.3126,-0.3148,-0.3122,-0.3132,-0.3155,-0.3187,-0.3141,-0.3127,-0.3121,-0.3205,-0.3206,-0.3207,-0.3208,0,0,-0.2898,-0.2944,-0.2939,-0.2951,-0.2982,-0.2985,-0.2981,-0.2996,-0.2998,-0.3014,-0.3012,-0.3021,-0.3043,-0.3053,-0.3077,-0.307,-0.3031,-0.3095,-0.3096,-0.3082,-0.3003,-0.2985,-0.2978,-0.3049,-0.3048,-0.3047,-0.3001,0,-0.285,-0.2848,-0.2881,-0.287,-0.2873,-0.2915,-0.2912,-0.293,-0.2951,-0.2956,-0.2978,-0.2984,-0.3013,-0.3019,-0.3014,-0.3037,-0.3016,-0.304,-0.3047,-0.3046,-0.304,-0.297,-0.2951,-0.2907,-0.2996,-0.2995,-0.2995,0,-0.2795,-0.2809,-0.2798,-0.283,-0.2833,-0.283,-0.2846,-0.2851,-0.2872,-0.2887,-0.2898,-0.2926,-0.2924,-0.2954,-0.2952,-0.2968,-0.2973,-0.2984,-0.2983,-0.2985,-0.3018,-0.297,-0.2894,-0.2887,-0.2986,-0.2987,-0.2988,0,-0.2731,-0.2747,-0.2743,-0.2752,-0.2789,-0.2786,-0.2801,-0.2823,-0.283,-0.2844,-0.2848,-0.2861,-0.2868,-0.2877,-0.2907,-0.2926,-0.2901,-0.2934,-0.2914,-0.2913,-0.2907,-0.2907,-0.283,-0.2909,-0.2909,-0.2909,-0.2909,0,-0.2675,-0.2667,-0.2715,-0.2712,-0.2704,-0.2742,-0.2732,-0.2751,-0.2771,-0.2772,-0.2809,-0.2809,-0.2849,-0.2853,-0.2877,-0.2872,-0.2874,-0.2886,-0.2893,-0.2883,-0.2882,-0.2887,-0.289,-0.2908,-0.2908,-0.2908,-0.2909,0,-0.2602,-0.2635,-0.2633,-0.2668,-0.2676,-0.2669,-0.2698,-0.2697,-0.272,-0.2721,-0.2723,-0.2758,-0.2765,-0.2797,-0.2811,-0.2827,-0.2813,-0.2826,-0.2806,-0.2811,-0.2789,-0.279,-0.2713,-0.2704,-0.2788,-0.2787,-0.2787,0,-0.2565,-0.256,-0.2594,-0.2598,-0.2612,-0.2617,-0.2625,-0.2661,-0.2667,-0.2691,-0.2686,-0.2697,-0.2707,-0.2716,-0.2742,-0.2753,-0.2766,-0.2739,-0.2768,-0.2759,-0.2766,-0.2766,-0.2766,-0.2732,-0.2731,-0.273,-0.2729,0,-0.2494,-0.2511,-0.252,-0.2535,-0.2543,-0.2556,-0.2572,-0.2572,-0.2613,-0.2618,-0.2626,-0.2634,-0.2649,-0.2658,-0.2674,-0.2688,-0.2715,-0.272,-0.2716,-0.2706,-0.2695,-0.2701,-0.2789,-0.2721,-0.2722,-0.2723,-0.2723,-0.2723,-0.2438,-0.2436,-0.246,-0.2469,-0.2485,-0.2498,-0.2499,-0.2522,-0.253,-0.2546,-0.2566,-0.2572,-0.2593,-0.2616,-0.2629,-0.2633,-0.2648,-0.2642,-0.2641,-0.2639,-0.2634,-0.2694,-0.2636,-0.2636,-0.2636,-0.2637,-0.2637,0,-0.237,-0.2388,-0.2396,-0.2417,-0.2424,-0.245,-0.2468,-0.2472,-0.2477,-0.2495,-0.2504,-0.2513,-0.2522,-0.255,-0.2561,-0.256,-0.2572,-0.2561,-0.2562,-0.2565,-0.262,-0.2622,-0.2551,-0.2551,-0.2551,-0.2551,-0.2551,-0.2551,-0.2335,-0.2332,-0.2351,-0.2356,-0.2374,-0.238,-0.2389,-0.2401,-0.2415,-0.2424,-0.2433,-0.2451,-0.2472,-0.2486,-0.2495,-0.2503,-0.2505,-0.249,-0.2502,-0.2553,-0.2561,-0.2569,-0.2571,-0.2491,-0.2491,-0.2447,-0.2447,-0.2446]},{"header":{"parameterUnit":"m.s-1","parameterCategory":1,"la1":30.2991,"la2":30.254,"lo1":-89.0895,"lo2":-89.0444,"dy":0.0017,"dx":0.0017,"nx":28,"ny":28,"refTime":"2024-08-03T09:00:00:Z","depth":0,"parameterNumber":3,"parameterNumberName":"V-component_of_WINDS"},"data":[0,0,0,0,0,0,0,0,0,0,0,0,0,0,0,0,0,0,0,0,0,0,0,0,0,0,0,0,0,0,0,0,0,0,0,0,0,0,0,0,0,0,0,0,0,0,0,0,0,0,0,0,0,0,0,0,0,0,0.1864,0.1864,0,0.1834,0.1834,0.1834,0.1806,0.1805,0.1805,0.1805,0.1773,0.1773,0.1772,0,0,0,0,0,0,0,0,0,0,0,0,0,0.1896,0.1896,0.1864,0.1864,0.1864,0.1834,0.1834,0.1833,0.1806,0.1805,0.1805,0.1805,0.1773,0.1773,0.1772,0,0,0,0,0,0,0,0,0,0,0,0,0,0.1876,0.1896,0.1865,0.1846,0.1845,0.1834,0.1834,0.1833,0.1806,0.1805,0.1805,0.1805,0.1774,0.1773,0.1772,0.1777,0,0,0.177,0.1769,0,0,0,0,0,0,0,0,0.1877,0.1875,0.1849,0.1848,0.1846,0.1823,0.1833,0.1814,0.1806,0.1821,0.1805,0.1804,0.179,0.1788,0.1783,0.1776,0.1774,0.1769,0.1769,0.1769,0.1768,0,0,0,0,0,0,0,0.1879,0.1876,0.1852,0.1849,0.1847,0.1839,0.1836,0.183,0.1809,0.1819,0.1817,0.1814,0.1789,0.1784,0.1782,0.1774,0.1769,0.1769,0.1768,0.1768,0.1766,0.1767,0,0,0,0,0,0,0.1883,0.1877,0.1853,0.1852,0.186,0.1839,0.1835,0.1831,0.1809,0.1805,0.1815,0.1813,0.1786,0.1783,0.1781,0.1785,0.1769,0.1768,0.1767,0.1766,0.1767,0.1767,0,0,0,0,0,0,0.1884,0.1881,0.1855,0.1864,0.186,0.1839,0.1834,0.1831,0.1826,0.1805,0.1801,0.1814,0.1785,0.1782,0.1778,0.1783,0.1768,0.1767,0.1765,0.1766,0.1767,0.1792,0,0,0,0,0,0,0.1885,0.1882,0.1884,0.1864,0.186,0.1853,0.1835,0.183,0.1825,0.1822,0.1803,0.1799,0.1785,0.1779,0.1777,0.1782,0.1766,0.1765,0.1766,0.1767,0.1791,0.1794,0.1796,0,0,0,0,0,0.1886,0.1893,0.1884,0.1882,0.1862,0.1853,0.185,0.1834,0.1825,0.1827,0.1813,0.18,0.1783,0.1779,0.1776,0.1781,0.1765,0.1766,0.1767,0.179,0.1793,0.1796,0,0,0,0,0,0,0.1914,0.189,0.188,0.1881,0.1869,0.1848,0.185,0.1838,0.1828,0.1827,0.1806,0.1802,0.1799,0.1789,0.1786,0.1784,0.1772,0.1772,0.179,0.1794,0.1796,0.1799,0.1766,0,0,0,0,0,0.192,0.1915,0.1894,0.1896,0.1891,0.1872,0.1867,0.1855,0.1842,0.1837,0.1823,0.1811,0.1802,0.1797,0.1788,0.1789,0.1784,0.1791,0.1793,0.1796,0.1796,0.1795,0.1797,0.177,0.177,0.177,0,0,0.1933,0.1919,0.1917,0.1902,0.1891,0.1886,0.1868,0.1863,0.1859,0.1836,0.1831,0.182,0.1805,0.1803,0.1801,0.1794,0.1802,0.1797,0.1799,0.1798,0.1796,0.1798,0.1801,0.1771,0.1771,0.1771,0,0,0.1953,0.1943,0.1943,0.1932,0.1917,0.1903,0.1903,0.1884,0.1876,0.1871,0.1853,0.1847,0.1833,0.1823,0.1815,0.183,0.1817,0.1827,0.1841,0.184,0.1842,0.1844,0.1848,0.185,0.1828,0.1828,0.1828,0,0.1971,0.1963,0.1944,0.1941,0.1934,0.1912,0.1912,0.1903,0.1885,0.188,0.1873,0.1854,0.1843,0.1837,0.184,0.1835,0.1834,0.183,0.1843,0.1845,0.1846,0.185,0.1852,0.1829,0.1829,0.1829,0.1829,0,0.1985,0.1979,0.1981,0.1965,0.1958,0.1956,0.1936,0.1931,0.1919,0.1906,0.19,0.1885,0.1872,0.1869,0.1858,0.1861,0.1858,0.1847,0.1835,0.185,0.1853,0.1855,0.1831,0.1831,0.183,0.183,0,0,0.2024,0.1995,0.1996,0.1988,0.1968,0.1963,0.1959,0.1947,0.1942,0.193,0.1926,0.1914,0.1903,0.1895,0.1882,0.188,0.1891,0.1869,0.1869,0.1874,0.1893,0.1901,0.1903,0.1882,0.1882,0.1883,0.1894,0,0.2041,0.2033,0.2016,0.2013,0.2007,0.1986,0.1982,0.1969,0.1957,0.1949,0.1935,0.1926,0.1913,0.1908,0.1906,0.1891,0.1895,0.1889,0.1877,0.1877,0.1882,0.1905,0.1914,0.1926,0.1895,0.1896,0.1896,0,0.206,0.2049,0.2046,0.2025,0.2022,0.2019,0.2005,0.1999,0.1983,0.1973,0.1963,0.1948,0.1942,0.193,0.192,0.1916,0.191,0.1902,0.1902,0.19,0.1888,0.1904,0.193,0.1931,0.1898,0.1898,0.1897,0,0.2088,0.2072,0.2068,0.2061,0.2037,0.2036,0.2025,0.2009,0.2002,0.1989,0.1984,0.1971,0.1964,0.1953,0.1934,0.1928,0.1926,0.1913,0.1918,0.1918,0.1919,0.1919,0.1944,0.1915,0.1915,0.1915,0.1915,0,0.2109,0.2108,0.208,0.2078,0.2075,0.2054,0.2052,0.204,0.2025,0.2019,0.1999,0.1994,0.1969,0.196,0.1945,0.1939,0.1936,0.1927,0.1923,0.1929,0.193,0.1925,0.1924,0.1915,0.1915,0.1915,0.1915,0,0.214,0.2122,0.2116,0.2093,0.2087,0.2086,0.2066,0.2062,0.2048,0.204,0.2037,0.2014,0.2002,0.1982,0.1965,0.1955,0.1951,0.1944,0.1957,0.1954,0.196,0.196,0.1982,0.1983,0.1954,0.1954,0.1954,0,0.2155,0.2154,0.213,0.2125,0.2115,0.2107,0.21,0.2078,0.2071,0.2051,0.205,0.2037,0.2025,0.2007,0.1989,0.1975,0.1967,0.1976,0.1965,0.1971,0.1967,0.1967,0.1967,0.1979,0.1979,0.198,0.198,0,0.2183,0.2174,0.2164,0.2151,0.2142,0.2131,0.2118,0.2114,0.2089,0.2082,0.207,0.2061,0.2043,0.203,0.2013,0.2001,0.1986,0.1983,0.1983,0.199,0.1997,0.1993,0.1964,0.1983,0.1983,0.1983,0.1982,0.1982,0.2206,0.2204,0.2187,0.2176,0.2164,0.2152,0.2147,0.2132,0.2121,0.2105,0.2093,0.2081,0.2063,0.2039,0.2028,0.2018,0.2011,0.2012,0.2012,0.2012,0.2014,0.1998,0.2015,0.2014,0.2014,0.2014,0.2014,0,0.2233,0.2221,0.2211,0.2194,0.2185,0.2172,0.2156,0.215,0.214,0.2125,0.2114,0.2099,0.2085,0.2065,0.2049,0.2045,0.2038,0.2042,0.2042,0.2039,0.2021,0.2023,0.2048,0.2048,0.2048,0.2048,0.2048,0.2048,0.2246,0.2241,0.2229,0.2217,0.2204,0.2193,0.2185,0.2174,0.2161,0.2146,0.2135,0.2121,0.2103,0.2086,0.2073,0.2067,0.2062,0.2068,0.206,0.2044,0.2041,0.2038,0.2039,0.2067,0.2067,0.2079,0.2079,0.2079]}]]